フルス彗星

P/2021 V2 ( Fuls )

English version
Home page
Updated on June 5, 2024

---------------------------------------------------------------------

・ プロフィール

発見日 2021年11月7日
発見光度 19.7等
発見者 David Carson Fuls (Mt. Lemmon)

・ 写真集

・ 軌道要素

Epoch 2024 Mar. 31.0 TT = JDT 2460400.5
T 2023 Jan. 21.55467 TT                                 Rudenko
q   3.4965815            (2000.0)            P               Q
n   0.03605646     Peri.  259.85288     -0.65176460     -0.73823402
a   9.0743184      Node   232.27577     +0.75298058     -0.60246209
e   0.6146728      Incl.   12.69476     +0.09068157     -0.30339736
P  27.3
>From 452 observations 2021 Aug. 7-2024 Mar. 18, mean residual 0".5.

・ 光度変化

        m1 = 12.5 + 5 logΔ + 5.0 log r

---------------------------------------------------------------------

軌道要素はM.P.E.C. 2024-F34に掲載されたものです。
光度グラフはComet for Windowsで作成したものです。

---------------------------------------------------------------------

Copyright(C) Seiichi Yoshida (comet@aerith.net). All rights reserved.